Location: Caltech
(34.1382°N, 118.1253°W)
Time: 08:52:54
(UTC-07:00)

Cosmos 44 Rocket - Visible Passes

Search period start: 29 July 2016 00:00
Search period end: 08 August 2016 00:00
Orbit: 638 x 753 km, 65.1° (Epoch: 28 July)

Date Brightness Start Highest point End Pass type
(mag) Time Alt. Az. Time Alt. Az. Time Alt. Az.
29 Jul 5.7 01:27:28 10° NNW 01:28:46 18° NNW 01:28:46 18° NNW visible
30 Jul 5.6 00:28:13 10° N 00:30:23 22° N 00:30:23 22° N visible
30 Jul 5.8 23:29:52 10° NNE 23:32:03 15° NE 23:32:03 15° NE visible
31 Jul 5.9 01:09:51 10° NW 01:10:45 15° NW 01:10:45 15° NW visible
01 Aug 5.5 00:10:22 10° NNW 00:12:28 23° N 00:12:28 23° N visible
01 Aug 5.5 23:11:40 10° N 23:14:14 18° NNE 23:14:14 18° NNE visible
02 Aug 6.0 00:52:17 10° NW 00:52:56 13° NW 00:52:56 13° NW visible
02 Aug 5.4 23:52:36 10° NNW 23:54:45 25° NNW 23:54:45 25° NNW visible
03 Aug 5.2 22:53:37 10° N 22:56:36 23° NNE 22:56:36 23° NNE visible
04 Aug 6.1 00:34:49 10° NW 00:35:18 12° NW 00:35:18 12° NW visible
04 Aug 5.7 21:56:19 10° NNE 21:57:36 11° NE 21:58:29 10° NE visible
04 Aug 5.2 23:34:53 10° NNW 23:37:12 27° NNW 23:37:12 27° NNW visible
05 Aug 4.8 22:35:42 10° N 22:39:08 29° NNE 22:39:08 29° NNE visible
06 Aug 6.1 00:17:28 10° NW 00:17:51 12° WNW 00:17:51 12° WNW visible
06 Aug 5.4 21:37:31 10° NNE 21:40:08 14° NE 21:41:06 13° ENE visible
06 Aug 5.0 23:17:14 10° NNW 23:19:49 30° NW 23:19:49 30° NW visible
07 Aug 4.3 22:17:50 10° NNW 22:21:50 39° NNE 22:21:50 39° NNE visible
